Time,TemperatureF,DewpointF,PressureIn,WindDirection,WindDirectionDegrees,WindSpeedMPH,WindSpeedGustMPH,Humidity,HourlyPrecipIn,Conditions,Clouds,dailyrainin,SoftwareType,DateUTC
2013-01-04 00:03:00,11.0,3.0,29.90,WNW,291,0.0,0.0,69,0.00,,,-99.99,,2013-01-04 05:03:00,
2013-01-04 00:12:00,11.0,3.0,29.90,WNW,291,0.0,0.0,69,0.00,,,-99.99,,2013-01-04 05:12:00,
2013-01-04 00:22:00,9.0,2.0,29.91,WNW,291,0.0,0.0,72,0.00,,,-99.99,,2013-01-04 05:22:00,
2013-01-04 00:33:00,7.0,1.0,29.90,WNW,291,0.0,1.0,75,0.00,,,-99.99,,2013-01-04 05:33:00,
2013-01-04 00:42:00,7.0,1.0,29.90,WNW,291,0.0,1.0,75,0.00,,,-99.99,,2013-01-04 05:42:00,
2013-01-04 00:52:00,5.0,0.0,29.88,WNW,291,0.0,3.0,78,0.00,,,-99.99,,2013-01-04 05:52:00,
2013-01-04 01:02:00,5.0,0.0,29.88,WNW,291,0.0,0.0,79,0.00,,,-99.99,,2013-01-04 06:02:00,
2013-01-04 01:12:00,5.0,0.0,29.88,WNW,291,0.0,0.0,79,0.00,,,-99.99,,2013-01-04 06:12:00,
2013-01-04 01:22:00,4.0,-1.0,29.88,WNW,291,0.0,0.0,79,0.00,,,-99.99,,2013-01-04 06:22:00,
2013-01-04 01:33:00,2.0,-2.0,29.89,WNW,291,0.0,2.0,81,0.00,,,-99.99,,2013-01-04 06:33:00,
2013-01-04 01:42:00,2.0,-2.0,29.89,WNW,291,0.0,2.0,81,0.00,,,-99.99,,2013-01-04 06:42:00,
2013-01-04 01:52:00,2.0,-2.0,29.90,WNW,291,0.0,1.0,81,0.00,,,-99.99,,2013-01-04 06:52:00,
2013-01-04 02:02:00,2.0,-2.0,29.89,WNW,291,0.0,1.0,83,0.00,,,-99.99,,2013-01-04 07:02:00,
2013-01-04 02:12:00,2.0,-2.0,29.89,WNW,291,0.0,1.0,83,0.00,,,-99.99,,2013-01-04 07:12:00,
2013-01-04 02:22:00,1.0,-3.0,29.89,WNW,291,0.0,0.0,81,0.00,,,-99.99,,2013-01-04 07:22:00,
2013-01-04 02:32:00,1.0,-1.0,29.88,WNW,291,0.0,0.0,92,0.00,,,-99.99,,2013-01-04 07:32:00,
2013-01-04 02:42:00,1.0,-1.0,29.88,WNW,291,0.0,0.0,92,0.00,,,-99.99,,2013-01-04 07:42:00,
2013-01-04 02:52:00,0.0,-4.0,29.88,WNW,291,0.0,0.0,83,0.00,,,-99.99,,2013-01-04 07:52:00,
2013-01-04 03:02:00,0.0,-4.0,29.88,WNW,291,0.0,0.0,83,0.00,,,-99.99,,2013-01-04 08:02:00,
2013-01-04 03:12:00,0.0,-4.0,29.88,WNW,291,0.0,0.0,83,0.00,,,-99.99,,2013-01-04 08:12:00,
2013-01-04 03:23:00,0.0,-4.0,29.87,WNW,291,0.0,0.0,84,0.00,,,-99.99,,2013-01-04 08:23:00,
2013-01-04 03:32:00,0.0,-4.0,29.87,WNW,291,0.0,0.0,84,0.00,,,-99.99,,2013-01-04 08:32:00,
2013-01-04 03:42:00,0.0,-4.0,29.87,WNW,291,0.0,0.0,84,0.00,,,-99.99,,2013-01-04 08:42:00,
2013-01-04 03:53:00,-1.0,-4.0,29.87,WNW,291,0.0,0.0,85,0.00,,,-99.99,,2013-01-04 08:53:00,
2013-01-04 04:02:00,-2.0,-5.0,29.86,WNW,291,0.0,0.0,85,0.00,,,-99.99,,2013-01-04 09:02:00,